Location: Newark
(7.1028°S, 35.3258°W)
Time: 09:36:09
(UTC+00:00)

deb Explorer IX - Pass Details

Date: 27 February 2020
Orbit: 548 x 1100 km, 38.8° (Epoch: 07 April)

Event Time Altitude Azimuth Distance (km) Brightness Sun altitude
Exits shadow 05:12:27 17° 97° (E) 2,336 ? -47.6°
Drops below altitude 10° 05:14:03 10° 87° (E) 2,740 ? -47.2°
Sets 05:16:56 0° 76° (ENE) 3,603 ? -46.5°
